DateTimeUTC,F1_A11,F1_S11,BsB_S11,BsG_S11,BsR_S11,BbsB_S11,BbsG_S11,BbsR_S11,BaB_A11,BaG_A11,BaR_A11,Tu_S11,T_S11,Uu_S11,U_S11,P_S11,T1_A11
2021-02-01T18:00:00Z,00000200,21000000,,,,,,,-000.57,-000.16,0000.16,16.4,23.7,,00.0,0624.8,30.9
2021-02-01T18:01:00Z,00000200,21000000,,,,,,,0000.02,-000.21,-000.53,16.3,23.7,,00.0,0624.8,30.9
2021-02-01T18:02:00Z,00000200,21000000,,,,,,,0000.04,0000.20,0000.10,16.3,23.7,,00.0,0624.8,30.9
2021-02-01T18:03:00Z,00000200,61000000,,,,,,,0000.08,-000.35,0000.08,16.3,23.7,,00.0,0624.8,30.9
2021-02-01T18:04:00Z,00000200,41000000,0000.95,0000.10,-000.03,0000.57,-000.19,0000.00,-000.22,0000.00,0000.08,16.3,23.4,,00.0,0625.6,30.9
2021-02-01T18:05:00Z,00000200,01000000,0000.15,0000.11,-000.29,0000.30,-000.03,-000.01,0000.15,0000.19,-000.12,16.3,23.3,,00.0,0625.7,30.9
2021-02-01T18:06:00Z,00000200,01000000,0000.06,-000.04,0000.16,-000.10,0000.14,-000.09,-000.23,-000.28,0000.01,16.3,23.3,,00.0,0625.7,30.9
2021-02-01T18:07:00Z,00000200,01000000,-000.07,-000.11,0000.08,0000.66,-000.07,0000.15,-000.22,0000.10,-000.10,16.2,23.2,,00.0,0625.7,30.9
2021-02-01T18:08:00Z,00000200,01000000,0000.14,0000.16,-000.01,0000.00,0000.25,-000.25,0000.32,-000.37,-000.06,16.2,23.2,,00.0,0625.7,30.9
2021-02-01T18:09:00Z,00000200,01000000,0000.02,0000.18,0000.03,-000.27,0000.14,0000.02,0000.21,0000.34,0000.30,16.1,23.2,,00.0,0625.7,30.9
2021-02-01T18:10:00Z,00000200,01000000,0000.83,0000.34,0000.15,-000.17,0000.13,-000.12,-000.31,-000.15,-000.14,16.1,23.1,,00.0,0625.7,30.9
2021-02-01T18:11:00Z,00000200,01000000,0000.15,0000.20,0000.15,0000.23,0000.17,-000.04,0000.48,0000.44,0000.18,16.0,23.1,,00.0,0625.7,30.9
2021-02-01T18:12:00Z,00000200,01000000,0000.28,0000.13,-000.06,0000.17,0000.02,0000.34,0000.14,-000.16,0000.08,16.0,23.1,,00.0,0625.7,30.9
2021-02-01T18:13:00Z,00000200,01000000,0000.28,-000.04,-000.09,0000.54,0000.15,-000.25,-000.68,-000.31,-000.38,16.0,23.1,,00.0,0625.7,30.8
2021-02-01T18:14:00Z,00000200,01000000,0000.37,-000.19,0000.01,0000.25,0000.10,-000.10,0000.58,0000.37,0000.33,15.9,23.0,,00.0,0625.7,30.8
2021-02-01T18:15:00Z,00000200,01000000,0000.89,0000.09,0000.09,-000.20,-000.06,0000.09,0000.29,0000.23,0000.08,15.9,23.0,,00.0,0625.7,30.8
2021-02-01T18:16:00Z,00000200,01000000,0000.29,0000.10,0000.07,0000.44,0000.31,-000.02,-000.20,0000.01,-000.39,15.8,22.9,,00.0,0625.7,30.8
2021-02-01T18:17:00Z,00000200,01000000,0000.24,0000.08,0000.10,-000.28,0000.02,0000.10,-000.19,-000.28,0000.36,15.8,22.9,,00.0,0625.7,30.8
2021-02-01T18:18:00Z,00000200,01000000,0000.21,-000.23,-000.15,-000.27,0000.14,-000.19,0000.31,-000.18,-000.37,15.8,22.9,,00.0,0625.7,30.8
2021-02-01T18:19:00Z,00000200,01000000,0000.34,0000.37,-000.08,0000.57,0000.33,0000.25,-000.04,0000.24,0000.27,15.7,22.8,,00.0,0625.7,30.8
2021-02-01T18:20:00Z,00000200,01000000,-000.13,0000.04,0000.29,-000.11,-000.16,0000.02,-000.07,-000.32,0000.05,15.7,22.8,,00.0,0625.7,30.8
2021-02-01T18:21:00Z,00000200,01000000,0000.49,0000.16,0000.03,-000.56,0000.14,-000.08,0000.11,0000.61,0000.26,15.7,22.8,,00.0,0625.7,30.8
2021-02-01T18:22:00Z,00000200,01000000,0000.05,-000.01,0000.01,0000.12,0000.18,-000.06,-000.12,0000.05,-000.09,15.6,22.8,,00.0,0625.7,30.8
2021-02-01T18:23:00Z,00000200,01000000,0000.16,0000.17,0000.09,0000.40,0000.24,0000.22,0000.11,-000.13,-000.05,15.6,22.7,,00.0,0625.6,30.8
2021-02-01T18:24:00Z,00000200,01000000,0000.14,0000.08,0000.19,-000.30,0000.13,0000.03,-000.07,-000.24,0000.35,15.5,22.7,,00.0,0625.6,30.8
2021-02-01T18:25:00Z,00000200,01000000,0000.05,0000.15,-000.11,0000.18,0000.27,0000.14,0000.04,0000.25,-000.35,15.5,22.7,,00.0,0625.6,30.8
2021-02-01T18:26:00Z,00000200,01000000,0000.17,-000.04,0000.13,-000.59,0000.31,0000.16,0000.14,-000.09,-000.03,15.5,22.6,,00.0,0625.6,30.8
2021-02-01T18:27:00Z,00000200,01000000,0000.51,0000.08,0000.18,-000.26,0000.16,0000.11,-000.07,0000.22,-000.01,15.5,22.6,,00.0,0625.6,30.8
2021-02-01T18:28:00Z,00000200,01000000,0000.69,-000.08,0000.05,0000.27,0000.09,-000.07,0000.12,0000.14,0000.04,15.4,22.6,,00.0,0625.6,30.8
2021-02-01T18:29:00Z,00000200,01000000,-000.05,-000.11,0000.26,0000.27,0000.12,0000.13,0000.04,-000.60,-000.13,15.4,22.5,,00.0,0625.6,30.8
2021-02-01T18:30:00Z,00000200,01000000,0000.51,0000.21,0000.10,0000.06,0000.25,-000.08,-000.04,-000.13,0000.20,15.4,22.5,,00.0,0625.6,30.8
2021-02-01T18:31:00Z,00000200,01000000,0000.48,0000.42,0000.19,0000.30,0000.35,0000.09,0000.23,0000.12,-000.12,15.4,22.5,,00.0,0625.6,30.8
2021-02-01T18:32:00Z,00000200,01000000,0000.51,0000.12,0000.08,-000.23,0000.13,0000.02,0000.32,0000.79,0000.46,15.4,22.5,,00.0,0625.6,30.8
2021-02-01T18:33:00Z,00000200,01000000,0000.57,0000.16,-000.05,0000.01,-000.08,-000.13,-000.07,0000.34,-000.16,15.5,22.5,,00.0,0625.6,30.8
2021-02-01T18:34:00Z,00000200,01000000,0000.11,0000.16,-000.08,-000.10,0000.23,-000.15,0000.33,-000.16,0000.40,15.6,22.5,,00.0,0625.6,30.9
2021-02-01T18:35:00Z,00000200,01000000,0000.63,-000.03,0000.18,0000.38,0000.29,0000.04,0000.26,0000.36,0000.20,15.7,22.6,,00.0,0625.6,30.9
2021-02-01T18:36:00Z,00000200,01000000,0000.87,0000.08,0000.08,-000.22,0000.20,0000.13,-000.33,-000.39,-000.44,15.8,22.6,,00.0,0625.7,30.9
2021-02-01T18:37:00Z,00000200,01000000,0000.29,0000.20,0000.23,0000.23,0000.05,-000.01,0000.19,-000.09,0000.14,15.8,22.7,,00.0,0625.7,30.9
2021-02-01T18:38:00Z,00000200,01000000,0000.18,0000.02,0000.21,0000.11,0000.19,0000.48,-000.02,0000.61,0000.32,15.9,22.7,,00.0,0625.7,30.9
2021-02-01T18:39:00Z,00000200,01000000,0000.34,0000.20,-000.27,0000.15,0000.24,-000.10,0000.03,-000.02,0000.21,16.0,22.7,,00.0,0625.7,30.9
2021-02-01T18:40:00Z,00000200,01000000,-000.01,0000.09,0000.12,-000.01,0000.22,0000.24,-000.23,0000.22,-000.26,16.1,22.8,,00.0,0625.7,30.9
2021-02-01T18:41:00Z,00000200,01000000,0000.38,0000.04,-000.03,-000.04,0000.05,0000.22,0000.26,-000.63,0000.02,16.2,22.8,,00.0,0625.7,30.9
2021-02-01T18:42:00Z,00000200,01000000,0000.85,-000.15,0000.24,0000.12,0000.29,0000.04,-000.05,0000.59,0000.06,16.2,22.8,,00.0,0625.7,30.9
2021-02-01T18:43:00Z,00000200,01000000,0000.18,-000.14,0000.27,0000.20,0000.32,-000.06,0000.18,-000.07,0000.27,16.2,22.8,,00.0,0625.7,30.9
2021-02-01T18:44:00Z,00000200,01000000,-000.52,0000.00,-000.17,-000.39,0000.19,0000.02,-000.37,-000.33,-000.70,16.1,22.8,,00.0,0625.7,30.9
2021-02-01T18:45:00Z,00000200,01000000,0000.58,0000.20,-000.16,0000.03,0000.14,0000.21,0000.12,-000.68,0000.38,16.1,22.8,,00.0,0625.7,30.9
2021-02-01T18:46:00Z,00000200,01000000,0000.40,-000.04,0000.10,0000.04,0000.08,-000.05,-000.20,0000.10,-000.07,16.1,22.7,,00.0,0625.7,30.9
2021-02-01T18:47:00Z,00000200,01000000,0000.33,0000.24,0000.10,-000.25,0000.24,-000.04,0000.38,0000.72,-000.03,16.1,22.8,,00.0,0625.7,30.9
2021-02-01T18:48:00Z,00000200,01000000,0000.72,0000.30,-000.06,-000.49,0000.03,-000.06,0000.17,0000.05,0000.41,16.1,22.8,,00.0,0625.7,30.9
2021-02-01T18:49:00Z,00000200,01000000,0000.35,0000.26,-000.05,0000.33,-000.10,0000.10,0000.02,0000.74,-000.03,16.2,22.8,,00.0,0625.7,30.9
2021-02-01T18:50:00Z,00000200,01000000,0000.69,0000.59,-000.19,0000.19,0000.18,0000.06,0000.11,-000.50,0000.40,16.3,22.9,,00.0,0625.7,30.9
2021-02-01T18:51:00Z,00000200,01000000,0000.61,-000.07,-000.12,-000.19,0000.20,0000.30,-000.22,0000.17,-000.13,16.4,22.9,,00.0,0625.7,31.0
2021-02-01T18:52:00Z,00000200,01000000,0000.36,-000.03,0000.17,-000.13,0000.26,-000.04,0000.12,0000.55,-000.06,16.5,23.0,,00.0,0625.7,31.0
2021-02-01T18:53:00Z,00000200,01000000,0000.29,0000.24,0000.04,-000.30,0000.09,0000.33,0000.21,-000.54,0000.22,16.6,23.0,,00.0,0625.7,30.9
2021-02-01T18:54:00Z,00000200,01000000,0000.05,-000.01,0000.16,-000.02,0000.18,0000.28,-000.03,-000.01,-000.15,16.6,23.1,,00.0,0625.8,31.0
2021-02-01T18:55:00Z,00000200,01000000,0000.61,-000.02,-000.04,-000.18,0000.40,0000.07,-000.39,-000.42,-000.25,16.7,23.1,,00.0,0625.8,31.0
2021-02-01T18:56:00Z,00000200,01000000,0000.40,-000.15,0000.02,0000.34,0000.12,0000.39,0000.03,-000.02,0000.15,16.7,23.1,,00.0,0625.8,31.0
2021-02-01T18:57:00Z,00000200,41000000,,,,,,,0000.30,0000.68,0000.18,16.7,23.2,,00.0,0625.8,31.0
2021-02-01T18:58:00Z,00000200,61000000,,,,,,,-000.07,-000.36,-000.17,16.3,23.2,,00.0,0624.9,30.9
2021-02-01T18:59:00Z,00000200,21000000,,,,,,,-000.28,0000.37,-000.26,16.2,23.3,,00.0,0624.8,30.9
